{"data":{"norad_id":64384,"epoch":"2026-05-25T04:28:58.435680Z","epoch_age_seconds":58588,"freshness":"FRESH","line1":"1 64384U 25127Q   26145.18678745  .00018328  00000+0  67355-3 0  9996","line2":"2 64384  42.9992 107.9954 0000691 255.7626 104.3149 15.27596132 54165","mean_motion":15.27596132,"eccentricity":6.91e-5,"inclination_deg":42.9992,"raan_deg":107.9954,"arg_perigee_deg":255.7626,"mean_anomaly_deg":104.3149,"bstar":0.00067355,"rev_number":5416,"period_min":94.265753220695,"perigee_km":482.52668683191,"apogee_km":483.47489607468,"semimajor_km":6861.1377914533,"source":"CELESTRAK","updated_at":"2026-05-25T13:38:20.413431Z"}}